Location: Unspecified
(0.0000°N, 0.0000°E)
Time: 03:14:46
(UTC+00:00)

Envisat - Pass Details

Date: 14 November 2019
Orbit: 764 x 766 km, 98.1° (Epoch: 11 November)

Event Time Altitude Azimuth Distance (km) Brightness Sun altitude
Rises 18:28:10 0° 169° (S) 3,230 6.3 -10.4°
Reaches altitude 10° 18:30:29 10° 169° (S) 2,302 5.6 -10.9°
Maximum altitude 18:35:33 87° 256° (WSW) 769 3.0 -12.1°
Drops below altitude 10° 18:40:37 10° 347° (NNW) 2,291 5.4 -13.3°
Sets 18:42:55 0° 348° (NNW) 3,214 6.2 -13.9°
